| time (UTC) | temp F | wind direction | speed knots | gust knots | rain 1hr in | rain 24hr in | rain mn in | humidity % | barometer mb |
| 20260506125537 | 75 | 59 | 0.0 | 0.0 | 0.00 | 0.00 | 0.00 | 94 | 1009.0 |
| 20260506124536 | 75 | 59 | 0.0 | 0.0 | 0.00 | 0.00 | 0.00 | 93 | 1008.9 |
| 20260506123536 | 75 | 59 | 0.0 | 0.0 | 0.00 | 0.00 | 0.00 | 93 | 1008.9 |
| 20260506122536 | 75 | 59 | 0.0 | 0.0 | 0.00 | 0.00 | 0.00 | 93 | 1008.7 |
| 20260506121537 | 75 | 59 | 0.0 | 0.0 | 0.00 | 0.00 | 0.00 | 93 | 1008.8 |
| 20260506120536 | 74 | 59 | 0.0 | 0.0 | 0.00 | 0.00 | 0.00 | 93 | 1008.6 |
| 20260506115536 | 74 | 59 | 0.0 | 0.0 | 0.00 | 0.00 | 0.00 | 93 | 1008.6 |
| 20260506114536 | 74 | 59 | 0.0 | 0.0 | 0.00 | 0.00 | 0.00 | 93 | 1008.4 |
| 20260506113536 | 74 | 59 | 0.0 | 0.0 | 0.00 | 0.00 | 0.00 | 92 | 1008.5 |
| 20260506112536 | 75 | 59 | 0.0 | 0.0 | 0.00 | 0.00 | 0.00 | 92 | 1008.4 |
| 20260506111536 | 75 | 59 | 0.0 | 0.0 | 0.00 | 0.00 | 0.00 | 92 | 1008.3 |
| 20260506110536 | 75 | 59 | 0.0 | 0.0 | 0.00 | 0.00 | 0.00 | 92 | 1008.0 |
| 20260506105536 | 75 | 59 | 0.0 | 0.0 | 0.00 | 0.00 | 0.00 | 92 | 1007.8 |
| 20260506104536 | 75 | 59 | 0.0 | 0.0 | 0.00 | 0.00 | 0.00 | 92 | 1007.6 |
| 20260506103536 | 75 | 59 | 0.0 | 0.9 | 0.00 | 0.00 | 0.00 | 91 | 1007.4 |
| 20260506102536 | 76 | 59 | 0.0 | 0.9 | 0.00 | 0.00 | 0.00 | 91 | 1007.5 |
| 20260506101536 | 76 | 59 | 0.9 | 1.7 | 0.00 | 0.00 | 0.00 | 91 | 1007.6 |
| 20260506100536 | 76 | 40 | 0.0 | 0.9 | 0.00 | 0.00 | 0.00 | 91 | 1007.6 |
| 20260506095536 | 76 | 40 | 0.0 | 0.9 | 0.00 | 0.00 | 0.00 | 91 | 1007.5 |
| 20260506093536 | 76 | 46 | 0.0 | 0.0 | 0.00 | 0.00 | 0.00 | 91 | 1007.2 |
| 20260506092536 | 76 | 46 | 0.0 | 0.9 | 0.00 | 0.00 | 0.00 | 91 | 1007.2 |
| 20260506091536 | 76 | 44 | 0.0 | 1.7 | 0.00 | 0.00 | 0.00 | 91 | 1007.2 |
| 20260506085536 | 76 | 13 | 0.0 | 0.9 | 0.00 | 0.00 | 0.00 | 91 | 1007.1 |
| 20260506084536 | 76 | 13 | 0.0 | 0.9 | 0.00 | 0.00 | 0.00 | 91 | 1007.3 |
| 20260506083536 | 76 | 13 | 0.0 | 0.9 | 0.00 | 0.00 | 0.00 | 91 | 1007.4 |
| 20260506081536 | 76 | 14 | 0.0 | 0.0 | 0.00 | 0.00 | 0.00 | 91 | 1007.5 |
| 20260506080536 | 76 | 14 | 0.0 | 0.0 | 0.00 | 0.00 | 0.00 | 91 | 1007.7 |
| 20260506072536 | 77 | 9 | 0.0 | 0.9 | 0.00 | 0.00 | 0.00 | 90 | 1008.2 |
| 20260506071536 | 77 | 9 | 0.0 | 2.6 | 0.00 | 0.00 | 0.00 | 90 | 1008.3 |
| 20260506061536 | 77 | 36 | 0.0 | 0.9 | 0.00 | 0.00 | 0.00 | 89 | 1008.4 |
| 20260506060535 | 77 | 36 | 0.0 | 0.0 | 0.00 | 0.00 | 0.00 | 89 | 1008.4 |
| 20260506050535 | 78 | 46 | 0.0 | 0.9 | 0.00 | 0.00 | 0.00 | 88 | 1008.2 |
| 20260506044536 | 78 | 26 | 0.9 | 0.9 | 0.00 | 0.00 | 0.00 | 88 | 1008.4 |
| 20260506043535 | 78 | 26 | 0.0 | 0.9 | 0.00 | 0.00 | 0.00 | 88 | 1008.2 |
| 20260506041536 | 78 | 26 | 0.0 | 1.7 | 0.00 | 0.00 | 0.00 | 87 | 1008.4 |
| 20260506040536 | 78 | 26 | 0.0 | 0.0 | 0.00 | 0.00 | 0.00 | 87 | 1008.4 |
| 20260506035535 | 78 | 26 | 0.0 | 0.9 | 0.00 | 0.00 | 0.00 | 87 | 1008.1 |
| 20260506034535 | 78 | 26 | 0.0 | 1.7 | 0.00 | 0.00 | 0.00 | 87 | 1008.0 |
| 20260506033535 | 78 | 108 | 0.9 | 4.3 | 0.00 | 0.00 | 0.00 | 87 | 1007.9 |
| 20260506031536 | 78 | 46 | 0.0 | 1.7 | 0.00 | 0.00 | 0.00 | 86 | 1007.9 |
| 20260506030536 | 78 | 31 | 0.0 | 0.0 | 0.00 | 0.00 | 0.00 | 86 | 1007.7 |
| 20260506025535 | 78 | 31 | 0.0 | 0.9 | 0.00 | 0.00 | 0.00 | 86 | 1007.7 |
| 20260506024536 | 78 | 30 | 0.0 | 0.9 | 0.00 | 0.00 | 0.00 | 86 | 1007.5 |
| 20260506023535 | 78 | 16 | 0.0 | 0.9 | 0.00 | 0.00 | 0.00 | 85 | 1007.2 |
| 20260506022535 | 79 | 16 | 0.0 | 0.9 | 0.00 | 0.00 | 0.00 | 85 | 1006.9 |
| 20260506021536 | 79 | 16 | 0.0 | 0.9 | 0.00 | 0.00 | 0.00 | 85 | 1006.9 |
| 20260506015535 | 79 | 286 | 0.0 | 0.0 | 0.00 | 0.00 | 0.00 | 84 | 1006.6 |
| 20260506014535 | 79 | 286 | 0.0 | 0.9 | 0.00 | 0.00 | 0.00 | 84 | 1006.5 |
| 20260506013535 | 79 | 287 | 0.0 | 0.9 | 0.00 | 0.00 | 0.00 | 84 | 1006.4 |
| 20260506012535 | 79 | 286 | 0.0 | 0.9 | 0.00 | 0.00 | 0.00 | 83 | 1006.3 |
| 20260506011535 | 79 | 286 | 0.0 | 4.3 | 0.00 | 0.00 | 0.00 | 83 | 1006.2 |
| 20260506004535 | 80 | 31 | 0.0 | 0.9 | 0.00 | 0.00 | 0.00 | 83 | 1005.8 |
| 20260506000535 | 81 | 312 | 0.0 | 1.7 | 0.00 | 0.00 | 0.00 | 82 | 1005.8 |
| 20260505235535 | 82 | 66 | 0.0 | 2.6 | 0.00 | 0.00 | 0.00 | 81 | 1005.7 |
| 20260505234535 | 82 | 327 | 0.0 | 3.5 | 0.00 | 0.00 | 0.00 | 81 | 1005.8 |
| 20260505232535 | 83 | 66 | 0.0 | 0.9 | 0.00 | 0.00 | 0.00 | 81 | 1005.5 |
| 20260505231535 | 83 | 68 | 0.0 | 1.7 | 0.00 | 0.00 | 0.00 | 80 | 1005.5 |
| 20260505230535 | 83 | 66 | 0.0 | 1.7 | 0.00 | 0.00 | 0.00 | 80 | 1005.5 |
| 20260505224535 | 83 | 336 | 0.0 | 1.7 | 0.00 | 0.00 | 0.00 | 79 | 1005.6 |
| 20260505223536 | 83 | 286 | 0.0 | 4.3 | 0.00 | 0.00 | 0.00 | 79 | 1005.6 |
| 20260505222535 | 83 | 278 | 0.0 | 4.3 | 0.00 | 0.00 | 0.00 | 79 | 1005.6 |
| 20260505221535 | 83 | 265 | 0.0 | 5.2 | 0.00 | 0.00 | 0.00 | 80 | 1005.7 |
| 20260505220535 | 83 | 80 | 0.0 | 4.3 | 0.00 | 0.00 | 0.00 | 80 | 1005.8 |
| 20260505214535 | 83 | 40 | 0.0 | 2.6 | 0.00 | 0.00 | 0.00 | 80 | 1006.0 |
| 20260505213535 | 83 | 39 | 0.0 | 2.6 | 0.00 | 0.00 | 0.00 | 80 | 1006.2 |
| 20260505212535 | 84 | 239 | 1.7 | 5.2 | 0.00 | 0.00 | 0.00 | 79 | 1006.3 |
| 20260505210535 | 84 | 88 | 0.0 | 1.7 | 0.00 | 0.00 | 0.00 | 79 | 1006.4 |
| 20260505202535 | 84 | 80 | 1.7 | 5.2 | 0.00 | 0.00 | 0.00 | 80 | 1007.0 |
| 20260505200535 | 83 | 76 | 0.0 | 1.7 | 0.00 | 0.00 | 0.00 | 81 | 1007.3 |
| 20260505195535 | 83 | 360 | 0.0 | 3.5 | 0.00 | 0.00 | 0.00 | 80 | 1007.5 |
| 20260505193535 | 83 | 27 | 1.7 | 5.2 | 0.00 | 0.00 | 0.00 | 80 | 1007.8 |
| 20260505191535 | 83 | 11 | 0.0 | 4.3 | 0.00 | 0.00 | 0.00 | 81 | 1007.8 |
| 20260505190535 | 82 | 31 | 2.6 | 4.3 | 0.00 | 0.00 | 0.00 | 81 | 1007.8 |
| 20260505185535 | 82 | 5 | 0.0 | 4.3 | 0.00 | 0.00 | 0.00 | 83 | 1007.8 |
| 20260505183535 | 81 | 333 | 0.0 | 4.3 | 0.00 | 0.00 | 0.00 | 84 | 1008.0 |
| 20260505182535 | 80 | 32 | 1.7 | 3.5 | 0.00 | 0.00 | 0.00 | 84 | 1008.2 |
| 20260505180535 | 80 | 355 | 1.7 | 4.3 | 0.00 | 0.00 | 0.00 | 84 | 1008.4 |
| 20260505175535 | 80 | 63 | 0.9 | 1.7 | 0.00 | 0.00 | 0.00 | 85 | 1008.3 |
| 20260505174535 | 79 | 32 | 0.0 | 2.6 | 0.00 | 0.00 | 0.00 | 86 | 1008.5 |
| 20260505173535 | 79 | 325 | 0.0 | 3.5 | 0.00 | 0.00 | 0.00 | 86 | 1008.6 |
| 20260505172535 | 79 | 355 | 0.0 | 1.7 | 0.00 | 0.00 | 0.00 | 86 | 1008.5 |
| 20260505171535 | 79 | 12 | 0.9 | 4.3 | 0.00 | 0.00 | 0.00 | 85 | 1008.6 |
| 20260505165535 | 79 | 80 | 0.0 | 1.7 | 0.00 | 0.00 | 0.00 | 86 | 1008.8 |
| 20260505164535 | 79 | 33 | 0.0 | 3.5 | 0.00 | 0.00 | 0.00 | 86 | 1008.8 |
| 20260505163535 | 79 | 38 | 0.0 | 1.7 | 0.00 | 0.00 | 0.00 | 87 | 1008.8 |
| 20260505162535 | 78 | 277 | 0.0 | 3.5 | 0.00 | 0.00 | 0.00 | 87 | 1008.8 |
| 20260505160535 | 77 | 265 | 0.9 | 4.3 | 0.00 | 0.00 | 0.00 | 87 | 1008.7 |
| 20260505152535 | 77 | 5 | 0.9 | 4.3 | 0.00 | 0.00 | 0.00 | 88 | 1008.5 |
| 20260505150535 | 76 | 51 | 0.0 | 4.3 | 0.00 | 0.00 | 0.00 | 88 | 1008.3 |
| 20260505140535 | 75 | 68 | 0.0 | 2.6 | 0.00 | 0.00 | 0.00 | 90 | 1008.3 |